Weather Roundup
Issued by NWS Chicago, IL

Home | Current Version | Previous Version | Graphics & Text | Print | Product List | Glossary On
Versions: 1 2 3 4 5 6 7 8 9 10 11 12 13 14 15 16 17 18 19 20 21 22 23 24 25 26 27 28 29 30 31 32 33 34 35 36 37 38 39 40 41 42 43 44 45 46 47 48 49 50
000
NZUS59 KLOT 191900
HRRLOT

CHICAGO AREA WEATHER ROUNDUP
NATIONAL WEATHER SERVICE CHICAGO/ROMEOVILLE IL
200 PM CDT FRI SEP 19 2014

NOTE: "FAIR" INDICATES FEW OR NO CLOUDS BELOW 12,000 FEET WITH NO
SIGNIFICANT WEATHER AND/OR OBSTRUCTIONS TO VISIBILITY.

* THESE STATIONS ARE NOT UNDER NWS QUALITY CONTROL. THEY ALSO MAY NOT
  REPORT WEATHER SUCH AS PRECIPITATION OR FOG.

ILZ005-006-012>014-019>023-192000-
NORTHEAST ILLINOIS

CITY           SKY/WX    TMP DP  RH WIND       PRES   REMARKS
OHARE          MOSUNNY   73  46  38 S20G26    30.08F
MIDWAY         MOSUNNY   74  46  36 S13G23    30.09F
AURORA         SUNNY     74  47  38 S17       30.08F
LANSING*       SUNNY     73  48  41 S17       30.11F
WAUKEGAN       SUNNY     72  47  40 S21G26    30.07F
DUPAGE AIRPORT SUNNY     74  48  39 S16G23    30.08F
WHEELING       SUNNY     75  45  34 S18       30.09F
NORTHERLY IS     N/A     72  44  36 S13         N/A
$$

WIZ051-052-058>065-066-070>072-192000-
SOUTHEAST WISCONSIN

CITY           SKY/WX    TMP DP  RH WIND       PRES   REMARKS
MILWAUKEE      MOSUNNY   73  50  44 S14       30.05F
KENOSHA*       SUNNY     73  51  46 SW14      30.07F
RACINE*        SUNNY     69  54  58 S14G23    30.08F
WAUKESHA       SUNNY     70  48  46 S13       30.06F
$$

INZ001>003-010>013-019-020-192000-
NORTHWEST INDIANA

CITY           SKY/WX    TMP DP  RH WIND       PRES   REMARKS
GARY*          NOT AVBL
MICHIGAN CITY* NOT AVBL
RENSSELAER*    NOT AVBL
VALPARAISO     SUNNY     73  46  38 S10       30.12F
$$

LMZ740>746-192000-
SOUTHERN LAKE MICHIGAN

STATION/POSITION TIME  SKY/WX   TEMP WIND        PRES    VSBY
                                AIR  DIR/SP/G
                 (UTC)          (F)  (DEG/KT/KT) (MB)    (MI)
HARRISON CRIB    1800            65  150/ 12/ 14   N/A
BURNHAM HARBOR   1900            72  160/ 15/ 17   N/A
CALUMET HARBOR   1800            71  140/ 12/ 17 1018.1F
BURNS HARBOR     NOT AVBL
MICHIGAN CITY    1800            68  160/ 14/ 21   N/A
$$

ABBREVIATIONS USED IN REMARKS
   TC - TEMPERATURE IN CELSIUS
  WCI - WIND CHILL INDEX
   HX - HEAT INDEX
  VSB - VISIBILITY
$$



USA.gov is the U.S. government's official web portal to all federal, state and local government web resources and services.